Regional Weather Roundup
Issued by NWS Pendleton, OR

Current Version | Previous Version | Text Only | Print | Product List | Glossary On
Versions: 1 2 3 4 5 6 7 8 9 10 11 12 13 14 15 16 17 18 19 20 21 22 23 24 25 26 27 28 29 30 31 32 33 34 35 36 37 38 39 40 41 42 43 44 45 46 47 48 49 50
000
ASUS46 KPDT 190025
RWRPDT
PENDLETON REGIONAL WEATHER ROUNDUP
NATIONAL WEATHER SERVICE PENDLETON OREGON
400 PM PST THU DEC 18 2014

NOTE: FAIR INDICATES FEW OR NO CLOUDS BELOW 12,000 FEET WITH NO
SIGNIFICANT WEATHER AND/OR OBSTRUCTIONS TO VISIBILITY.

# INDICATES UNOFFICIAL STATION AND DATA

WAZ520-190110-
EAST SLOPES OF WASHINGTON CASCADES

CITY            SKY/WX      TMP DP  RH  WIND    PRES   REMARKS
#BULLFROG 2SW   N/A         35  35  100 CALM    27.50S
#BUMPING DAM    N/A         33  N/A N/A CALM    N/A
#CLE ELUM HS    N/A         37  33  85  CALM    29.88S
#CLE ELUM 2NW   N/A         34  33  96  CALM    N/A
#CLE ELUM LAKE  N/A         31  31  100 CALM    29.96S
#CLIFFDEL 2NW   N/A         34  33  96  CALM    N/A
#GLENWOOD       N/A         39  38  96  CALM    29.96
#MANASTASH CYN  N/A         32  29  89  CALM    29.88S
#NELSON         N/A         34  33  96  CALM    29.99
#NELSON 3SW     N/A         31  30  96  CALM    30.18
#NILE           N/A         35  34  96  CALM    29.22S
#RONALD 2NW     N/A         33  31  92  CALM    29.77S
#SNOWDEN        N/A         36  34  92  CALM    N/A
#TEANAWAY 4NE   N/A         35  35  100 CALM    N/A
#TROUT LAKE HS  N/A         40  40  100 CALM    N/A
#TROUT LAKE 1NE N/A         38  37  96  CALM    29.97
$$

WAZ521-190110-
SIMCOE HIGHLANDS

CITY            SKY/WX      TMP DP  RH  WIND    PRES   REMARKS
#BICKLETON HS   N/A         39  33  79  CALM    33.37
#CENTERVILLE 4W N/A         40  38  92  E1      29.67S
#CENTERVILLE 1SWN/A         37  35  92  CALM    29.94R
#GOLDENDALE     N/A         41  40  96  CALM    N/A
#GOLDENDALE 1NE N/A         42  37  82  CALM    N/A
#GOLDENDALE 1S  N/A         41  39  93  E1      29.90R
#GOLDENDALE 5WNWN/A         39  37  92  CALM    29.95F
#GOODNOE HILLS  N/A         37  34  89  E3      N/A
#LYLE 6NE       N/A         36  35  96  CALM    29.95
$$

WAZ026-190110-
KITTITAS VALLEY

CITY            SKY/WX      TMP DP  RH  WIND    PRES   REMARKS
ELLENSBURG AP   CLOUDY      37  34  89  CALM    29.93  FOG
6HR MIN TEMP:   37; 6HR MAX TEMP:   40; 6HR PCP:  0.02;

#ELLENSBURG CWU N/A         35  33  92  CALM    29.94S
#ELLENSBURG 3NE N/A         35  34  96  CALM    29.94
#ELLENSBURG     N/A         38  38  100 CALM    N/A
#ELLENSBURG 1E  N/A         35  33  92  CALM    N/A
#KITTITAS 4N    N/A         36  33  89  E2      29.97S
#KITTITAS 3S    N/A         36  35  96  CALM    29.98S
#THORP 6N       N/A         32  31  96  SE1     30.01
$$

WAZ027-190110-
YAKIMA VALLEY

CITY            SKY/WX      TMP DP  RH  WIND    PRES   REMARKS
YAKIMA AIRPORT  CLOUDY      41  36  82  S3      29.96
6HR MIN TEMP:   41; 6HR MAX TEMP:   43; 6HR PCP:  TRACE;

YAKIMA-VAGABOND CLOUDY      39  37  92  SW1     29.95S
#DONALD 2NE     N/A         38  36  92  CALM    28.80F
#GRANDVIEW      N/A         39  37  92  NE1     30.00S
#MABTON         N/A         40  39  96  CALM    29.96
#MOXEE 2E       N/A         37  35  92  CALM    29.92
#NACHES 2SW     N/A         37  36  96  CALM    29.93S
#OUTLOOK DOT    N/A         N/A N/A N/A CALM    N/A
#SELAH 8E       N/A         36  36  100 SW7     N/A
#TERRACE HTS    N/A         39  37  92  S1      29.96
#WAPATO 4NE     N/A         38  36  92  CALM    28.80F
#WEST VALLEY    N/A         39  36  89  CALM    29.96S
#W YAKIMA       N/A         39  36  89  CALM    29.99R
#WHITE SWAN 5E  N/A         39  38  96  CALM    30.00S
#WILEY CITY 3W  N/A         36  30  79  CALM    29.96S
$$

WAZ028-190110-
LOWER COLUMBIA BASIN...WASHINGTON

CITY            SKY/WX      TMP DP  RH  WIND    PRES   REMARKS
PASCO           CLOUDY      41  39  93  NW6     30.00  HAZE
6HR MIN TEMP:   36; 6HR MAX TEMP:   41; 6HR PCP:  TRACE;

PROSSER AWOS    N/A         39  39  100 NE10    29.99
#BASIN CITY 5SW N/A         39  37  92  NW2     29.98S
#BENTON CITY    N/A         38  36  92  E3      29.91
#CONNELL 5N     N/A         41  39  93  CALM    30.00
#CONNELL 5NW    N/A         40  38  92  CALM    29.96
#ELTOPIA        N/A         42  40  93  CALM    29.97R
#ELTOPIA 6NW    N/A         39  38  96  CALM    28.94
#KAHLOTUS       N/A         41  39  93  S1      30.00
#KENNEWICK      N/A         35  35  100 CALM    27.50S
#KENNEWICK 3S   N/A         39  37  92  CALM    30.01S
#PASCO-BROADMOORN/A         41  37  86  NW1     29.91S
#PATERSON       N/A         38  36  92  CALM    29.96F
#PROSSER        N/A         38  36  92  NE3     29.99
#SAGEMOOR 2W    N/A         40  38  92  CALM    29.85S
#TOUCHET 2S     N/A         41  39  93  W1      29.98
#WEST PASCO     N/A         42  38  86  CALM    30.00
$$

WAZ029-190110-
FOOTHILLS OF THE BLUES...WASHINGTON

CITY            SKY/WX      TMP DP  RH  WIND    PRES   REMARKS
WALLA WALLA AP  CLOUDY      43  40  89  N3      29.95  FOG
6HR MIN TEMP:   41; 6HR MAX TEMP:   45;

#COLLEGE PLACE  N/A         44  33  65  W2      29.98
#DAYTON SCHOOL  N/A         47  38  71  CALM    29.96
#PLEASANT VIEW 1N/A         39  39  100 CALM    30.05
#PRESCOTT       N/A         45  43  93  CALM    29.97S
#SUDBURY        N/A         44  N/A N/A CALM    N/A
#WHITMAN COLLEGEN/A         41  39  93  SW2     30.03
#WAITSBURG 5S   N/A         45  40  82  E3      30.07S
#WALLA WALLA 5E N/A         42  41  96  W1      N/A
#WHITMAN MISSIONN/A         41  40  96  CALM    30.00S
$$

WAZ030-190110-
BLUE MOUNTAINS...WASHINGTON

CITY            SKY/WX      TMP DP  RH  WIND    PRES   REMARKS
#DIXIE 5SE      N/A         44  31  60  S8      29.86F
#SKI BLUEWOOD   N/A         35  31  85  SE7     30.02S
$$

ORZ009-041-WAZ024-190110-
COLUMBIA RIVER GORGE

CITY            SKY/WX      TMP DP  RH  WIND    PRES   REMARKS
HOOD RIVER AP   CLOUDY      41  39  93  CALM    29.96
THE DALLES AP   CLOUDY      41  37  86  CALM    29.97S
#ARLINGTON AIRPON/A         36  35  96  E1      30.02S
#ARLINGTON HS   N/A         39  36  89  CALM    29.90F
#CELILO DOT     N/A         42  35  76  CALM    N/A
#LYLE           N/A         42  40  93  S1      29.99
#MARYHILL 2W    N/A         39  39  100 CALM    N/A
#MOSIER 1S      N/A         39  38  96  CALM    29.97S
#MURDOCK        N/A         42  40  93  CALM    30.00S

$$

ORZ510-190110-
NORTH CENTRAL OREGON

CITY            SKY/WX      TMP DP  RH  WIND    PRES   REMARKS
#COW CYN RST AREN/A         44  35  70  SE3     N/A
#DUFUR 9E       N/A         35  35  100 CALM    30.03
#GRASS VALLEY   N/A         38  38  100 N1      N/A
#GRASS VALLEY 1SN/A         38  36  92  CALM    29.99S
#KENT DOT       N/A         43  31  62  E3      N/A
#MAUPIN SCHOOL  N/A         40  36  85  CALM    29.94S
#MORO SCHOOL    N/A         39  39  100 CALM    29.93S
#TYGH VALLEY 2NEN/A         39  36  89  CALM    29.96
#WAPANITIA AIRPON/A         39  38  96  CALM    29.99
#WASCO AIRPORT  N/A         39  35  85  E5      N/A
#WASCO 5NE      N/A         37  36  96  CALM    29.98
$$

ORZ511-190110-
CENTRAL OREGON

CITY            SKY/WX      TMP DP  RH  WIND    PRES   REMARKS
BEND AIRPORT    MOCLDY      45  32  60  SW16    29.92S WCI 38
MADRAS AIRPORT  MOCLDY      48  36  63  S15     29.91  WCI 42
PRINEVILLE AP   CLOUDY      46  34  63  SE12    29.92S WCI 40
#BEND 1SW       N/A         40  35  82  W2      N/A
#BEND-AWBREY    N/A         43  36  76  SW10    29.96R
#BEND-KIM LN    N/A         45  36  70  SW5     29.88S
#CROOKED RVR RANN/A         48  37  65  W12G26  29.94F WCI 43
#CULVER         N/A         48  36  63  S7      29.85S
#LAKE BILLY CHINN/A         48  25  40  CALM    29.98S
#POWELL BUTTE 3EN/A         47  35  63  SE6     N/A
#POWELL BUTTE   N/A         45  34  65  SW9     29.55S
#PRINEVILLE 3N  N/A         46  38  73  SE5     29.94S
#WARM SPRINGS   N/A         43  38  82  CALM    29.89


ORZ509-190110-
EAST SLOPES OF OREGON CASCADES

CITY            SKY/WX      TMP DP  RH  WIND    PRES   REMARKS
#BLUE BOX PASS  N/A         36  -13 11  CALM    N/A
#BLACK BUTTE RNCN/A         39  37  92  CALM    29.97F
#CAMP SHERMAN   N/A         39  37  92  CALM    29.97S
#LA PINE 4NW    N/A         40  32  73  SW1     30.03
#MT BACHELOR-MIDN/A         29  28  96  N33G41  N/A    WCI 13
#SISTERS AIRPOR N/A         42  41  96  CALM    30.17S
#SISTERS ODOT   N/A         41  N/A N/A CALM    N/A
#SISTERS 1NW    N/A         42  36  79  N7      N/A
#SISTERS 3N     N/A         39  34  82  CALM    29.93S
#SUNRIVER       N/A         40  35  82  S2      29.88S
#TUMALO 3W      N/A         43  35  73  S12     29.84  WCI 37
#WANOGA BUTTE D N/A         31  31  100 W12     N/A    WCI 22

$$

ORZ044-190110-
LOWER COLUMBIA BASIN...OREGON

CITY            SKY/WX      TMP DP  RH  WIND    PRES   REMARKS
HERMISTON       LGT RAIN    40  37  89  NE6     29.95  FOG
6HR MIN TEMP:   34; 6HR MAX TEMP:   41; 6HR PCP:  TRACE;

#BOARDMAN 3W    N/A         39  38  96  W2      29.71S
#BOARDMAN 8SW   N/A         38  36  92  CALM    29.98F
#ECHO 8SW       N/A         40  36  85  CALM    29.94
#IONE SCHOOL    N/A         40  28  62  CALM    29.94
#IRRIGON 4NW    N/A         40  40  100 S1      N/A
#UMATILLA SCHOOLN/A         37  37  100 CALM    30.01F
#UMATILLA       N/A         40  36  85  CALM    29.95F
$$

ORZ507-190110-
NORTHERN FOOTHILLS OF THE BLUES

CITY            SKY/WX      TMP DP  RH  WIND    PRES   REMARKS
PENDLETON AIRPT LGT RAIN    41  39  93  E3      29.93  FOG
6HR MIN TEMP:   36; 6HR MAX TEMP:   42; 6HR PCP:  TRACE;

#ADAMS 3WNW     N/A         45  43  93  CALM    29.98
#ATHENA         N/A         49  39  68  SE2     30.01
#CAYUSE         N/A         50  41  71  CALM    29.98
#HELIX SCHOOL   N/A         46  41  83  SE6     29.97F
#HELIX 3N       N/A         47  41  79  SE10    29.91
#HOLDMAN 5SE    N/A         43  41  93  CALM    29.95
#HOLDMAN 6E     N/A         47  43  86  CALM    29.79
#M-F GROVE ELEM N/A         43  37  79  CALM    29.93
#M-FREEWATER 5SEN/A         50  39  66  E12     29.94S
#PENDLETON DNTN N/A         43  42  96  CALM    28.76
#PDT AQUATIC CTRN/A         43  42  96  CALM    29.91F
#PENDLETON 5NE  N/A         42  41  96  CALM    29.90F
#PDT SUNRIDGE   N/A         42  40  93  CALM    29.95F
#PENDLETON 7NW  N/A         42  39  89  CALM    N/A
#PILOT ROCK     N/A         47  35  63  CALM    29.94F
#TUTUILLA       N/A         43  40  89  CALM    29.97F
#UMAPINE 2E     N/A         42  40  93  CALM    29.93S
#WESTON SCHOOL  N/A         48  34  58  SW7     29.93R

$$

ORZ508-190110-
SOUTHERN FOOTHILLS OF THE BLUES

CITY            SKY/WX      TMP DP  RH  WIND    PRES   REMARKS
LEXINGTON       FOG         37  37  100 N6      29.94S VSB<1/4
#AJAX           N/A         38  33  82  CALM    29.85
#CONDON SCHOOL  N/A         44  39  82  CALM    29.87S
#CONDON 5W      N/A         42  35  76  SE9     29.87F
#FOSSIL SCHOOL  N/A         46  36  68  CALM    29.89S
#HEPPNER EOC    N/A         49  37  63  SE7     29.92
#HEPPNER 4NE    N/A         46  36  68  CALM    29.96F
#LEXINGTON 2SE  N/A         40  37  89  CALM    29.88F
#MIKKALO        N/A         38  35  89  CALM    29.92F
#OLEX 4N        N/A         37  35  92  E1      29.93
#RUGGS 5NE      N/A         46  34  63  N5      30.07S
#RUGGS 2SW      N/A         46  36  68  S13     29.98S WCI 40

$$

ORZ502-503-190110-
BLUE MOUNTAINS

CITY            SKY/WX      TMP DP  RH  WIND    PRES   REMARKS
MEACHAM         CLOUDY      38  33  82  CALM    29.95
6HR MIN TEMP:   36; 6HR MAX TEMP:   40;

#HARDMAN 10S    N/A         35  33  92  S3      30.13S
#HEPPNER 15SE   N/A         39  34  82  S1      29.82S
#LONG CREEK HS  N/A         41  38  89  CALM    29.89F
#PIKES PEAK     N/A         43  31  62  S22     27.99S WCI 34
#TOLLGATE       N/A         33  32  96  SW2     29.88R
#TROY SCHOOL    N/A         43  40  89  CALM    29.90S
#UKIAH          N/A         42  35  76  SE2     30.06
#WESTON 4E      N/A         42  35  76  E10     29.93
$$

ORZ505-190110-
JOHN DAY BASIN

CITY            SKY/WX      TMP DP  RH  WIND    PRES   REMARKS
JOHN DAY        CLOUDY      45  32  60  SE17G29 29.99R WCI 38
#JOHN DAY KJDY  N/A         46  45  96  CALM    29.99R
#DAYVILLE SCHOOLN/A         32  29  89  CALM    30.16S
#MONUMENT HS    N/A         44  36  73  NE1     29.96S
#MT. VERNON 5SE N/A         39  32  76  E7      29.92F
#WINLOCK        N/A         44  35  70  CALM    30.01F
$$

ORZ506-190110-
OCHOCO AND JOHN DAY HIGHLANDS

CITY            SKY/WX      TMP DP  RH  WIND    PRES   REMARKS
#HORSE RIDGE DO N/A         41  32  70  SE12    N/A    WCI 34
#KEYES SMT DOT  N/A         39  32  76  SE12    N/A    WCI 32
#PRAIRIE CITY   N/A         41  31  67  CALM    30.06S
#SENECA         N/A         37  N/A N/A SE3     N/A
#SENECA 9NW     N/A         35  33  92  CALM    30.06
$$

ORZ049-190110-
GRANDE RONDE VALLEY

CITY            SKY/WX      TMP DP  RH  WIND    PRES   REMARKS
LA GRANDE       CLOUDY      45  28  51  S21G29  29.98F WCI 37
#COVE           N/A         45  39  79  CALM    30.03
#COVE SCHOOL    N/A         45  35  68  E6      29.96
#COVE 6NW       N/A         43  35  73  S2      30.09
#ELGIN 3N       N/A         43  32  65  S6      29.71S
#ELGIN 1E       N/A         44  36  73  CALM    N/A
#IMBLER SCHOOL  N/A         42  35  76  S10     29.95R
#ISLAND CITY 4N N/A         49  48  96  CALM    29.82S
#LADD CYN DOT   N/A         42  33  70  S21G30  N/A    WCI 33
#UNION 1S       N/A         43  35  73  SE6     29.96F
$$

ORZ050-190110-
WALLOWA COUNTY

CITY            SKY/WX      TMP DP  RH  WIND    PRES   REMARKS
#ENTERPRISE AP  N/A         32  30  92  CALM    29.92R
#ENTERPRISE HS  N/A         34  32  92  CALM    29.99S
#IMNAHA SCHOOL  N/A         48  35  60  S8      30.00R
#JOSEPH 3N      N/A         31  30  96  CALM    30.00S
#JOSEPH 3W      N/A         32  29  89  CALM    29.80S
#LOSTINE        N/A         34  32  92  CALM    29.89S
#MT HOWARD 8000 N/A         26  21  81  SW10    29.89F
#PROMISE 1S     N/A         37  34  89  N1      30.15
#SHEEP RDG 7000 N/A         30  22  72  CALM    30.04
#WALLOWA SCHOOL N/A         37  34  89  CALM    31.05S



$$



USA.gov is the U.S. government's official web portal to all federal, state and local government web resources and services.